{"data":{"norad_id":56712,"epoch":"2026-05-24T22:53:26.180736Z","epoch_age_seconds":78769,"freshness":"FRESH","line1":"1 56712U 23068C   26144.95377524 -.00000014  00000+0 -69150-4 0  9990","line2":"2 56712  87.9108 233.3909 0002300  95.2876 264.8517 13.16595970148649","mean_motion":13.1659597,"eccentricity":0.00023,"inclination_deg":87.9108,"raan_deg":233.3909,"arg_perigee_deg":95.2876,"mean_anomaly_deg":264.8517,"bstar":-6.915e-5,"rev_number":14864,"period_min":109.37296124338,"perigee_km":1196.0076418185,"apogee_km":1199.4925498826,"semimajor_km":7575.8870958506,"source":"CELESTRAK","updated_at":"2026-05-25T13:38:22.708499Z"}}